Location: Beetenbrück
(52.8113°N, 9.5946°E)
Time: 16:29:14
(UTC+00:00)

NOSS 3-1 (C) - Pass Details

Date: 14 April 2026
Orbit: 618 x 1583 km, 63.4° (Epoch: 10 January)

Event Time Altitude Azimuth Distance (km) Brightness Sun altitude
Rises 19:58:22 0° 306° (NW) 3,449 8.4 -14.0°
Reaches altitude 10° 20:00:44 10° 313° (NW) 2,634 7.2 -14.3°
Maximum altitude 20:06:44 46° 26° (NNE) 1,441 4.5 -15.0°
Enters shadow 20:13:20 14° 96° (E) 2,995 5.6 -15.8°
